Weather in Barsukovskaya

Russia / Stavropol Krai     44°45′41″N   41°49′04″E
temp.,
°C
wind,
m/s
gust,
m/s
humid.,
%
clouds,
%
prec.,
mm/h
press.,
hPa
HPBL,
m
19 september, sun
sun1900:00+15ese397856 0.0 1014198
03:00+15ese4976100 0.0 1014288
06:00+13ese4991100 0.0 1014232
09:00+18ese567039 0.0 1013464
12:00+23ese55505 0.0 1012865
15:00+25e434181 0.0 10121476
18:00+22e3753100 0.0 1012148
21:00+19sse226396 0.1 101245
20 september, mon
mon2000:00+17wnw367796 0.1 1013218
03:00+15ne008389 0.1 101311
06:00+15sse2384100 0.0 101336
09:00+19sse2262100 0.1 1014417
12:00+22ne225094 0.2 1013533
15:00+22wnw334775 0.2 1014682
18:00+20wnw115528 0.0 101415
21:00+17ssw11545 0.0 101511
21 september, tue
tue2100:00+16sse2259100 0.0 101614
03:00+14sse227524 0.0 101519
06:00+14se3382100 0.0 101442
09:00+20e346074 0.0 1014439
12:00+26ese564160 0.0 10111256
15:00+27se4536100 0.0 10081694
18:00+16wnw3690100 4.9 1012392
21:00+16wnw2890100 4.9 1014710
22 september, wed
wed2200:00+14wnw6893100 0.4 1015695
03:00+13nw4689100 0.7 1015543
06:00+12wnw4787100 0.2 1016655
09:00+11wnw3473100 0.2 1017638
12:00+12wnw2369100 0.0 1017651
15:00+12w1166100 0.0 1016546
18:00+12ssw1269100 0.0 1017144
21:00+12sse2272100 0.0 1017113
23 september, thu
thu2300:00+12ese1273100 0.0 1015137
03:00+12e2575100 0.0 1014245
06:00+12e3873100 0.0 1013525
09:00+13ese61068100 0.0 1012718
12:00+15e81064100 0.0 1010885
15:00+15ese5667100 0.0 1009998
18:00+14e3574100 0.1 1009475
21:00+12sw0192100 4.0 1009124